Memphis, TN

10:24 PM CDT on September 28, 2016 (GMT -0500)
Memphis International

Weather History for KMEM - June, 2014

Change the Weather History Date:

Saturday, June 14, 2014

  Actual Average Record
Temperature  
Mean Temperature 74 °F 80 °F  
Max Temperature 86 °F 89 °F 99 °F (1952)
Min Temperature 62 °F 70 °F 56 °F (1985)
Degree Days  
Heating Degree Days 0 0  
Month to date heating degree days 0 0  
Since 1 June heating degree days 0 0  
Since 1 July heating degree days 3484 2964  
Cooling Degree Days 9 15  
Month to date cooling degree days 178 182  
Year to date cooling degree days 489 503  
Since 1 June cooling degree days 178 182  
Growing Degree Days 24 (Base 50)    
Moisture  
Dew Point 57 °F    
Average Humidity 59    
Maximum Humidity 78    
Minimum Humidity 40    
Precipitation  
Precipitation 0.00 in 0.11 in 5.18 in (1900)
Month to date precipitation 4.34 1.80  
Year to date precipitation 30.30 26.08  
Snow  
Snow 0.00 in 0.00 in - ()
Month to date snowfall 0.0 0.0  
Since 1 June snowfall 0.0 0.0  
Since 1 July snowfall 0.8 3.8  
Snow Depth 0.00 in    
Sea Level Pressure  
Sea Level Pressure 30.00 in    
Wind  
Wind Speed 5 mph (ESE)    
Max Wind Speed 12 mph    
Max Gust Speed 17 mph    
Visibility 10 miles    
Events      
T = Trace of Precipitation, MM = Missing Value Source: NWS Daily Summary

Daily Weather History Graph

Daily Weather History Graph

Search for Another Location

Airport or City:

Trip Planner

Search our weather history database for the weather conditions in past years. The results will help you decide how hot, cold, wet, or windy it might be!

Date:

Astronomy

Jun. 14, 2014 Rise Set
Actual Time 5:45 AM CDT 8:15 PM CDT
Civil Twilight 5:15 AM CDT 8:45 PM CDT
Nautical Twilight 4:38 AM CDT 9:21 PM CDT
Astronomical Twilight 3:58 AM CDT 10:02 PM CDT
Moon 9:43 PM CDT (6/14) 7:25 AM CDT (6/14)
Length of Visible Light 15h 29m
Length of Day
14h 30m
Waning Gibbous, 97% of the Moon is Illuminated
Jun 14
Waning Gibbous
Jun 19
Last Quarter
Jun 27
New
Jul 5
First Quarter
Jul 12
Full

Hourly Weather History & Observations

Time (CDT) Temp. Heat Index Dew Point Humidity Pressure Visibility Wind Dir Wind Speed Gust Speed Precip Events Conditions
12:54 AM 69.1 °F - 55.0 °F 61% 30.00 in 10.0 mi ENE 6.9 mph - N/A   Clear
1:54 AM 66.0 °F - 55.0 °F 68% 30.01 in 10.0 mi East 4.6 mph - N/A   Clear
2:54 AM 66.0 °F - 55.0 °F 68% 29.99 in 10.0 mi East 4.6 mph - N/A   Clear
3:54 AM 64.9 °F - 55.0 °F 70% 30.00 in 10.0 mi East 5.8 mph - N/A   Clear
4:54 AM 66.0 °F - 55.0 °F 68% 30.00 in 10.0 mi ENE 5.8 mph - N/A   Clear
5:54 AM 63.0 °F - 55.0 °F 75% 30.03 in 10.0 mi ENE 5.8 mph - N/A   Partly Cloudy
6:54 AM 64.9 °F - 55.0 °F 70% 30.04 in 10.0 mi East 5.8 mph - N/A   Scattered Clouds
7:54 AM 69.1 °F - 54.0 °F 58% 30.08 in 10.0 mi East 5.8 mph - N/A   Scattered Clouds
8:54 AM 73.0 °F - 54.0 °F 51% 30.08 in 10.0 mi East 8.1 mph - N/A   Partly Cloudy
9:54 AM 75.9 °F - 54.0 °F 46% 30.06 in 10.0 mi East 4.6 mph - N/A   Partly Cloudy
10:54 AM 79.0 °F - 55.9 °F 45% 30.04 in 10.0 mi SE 6.9 mph - N/A   Partly Cloudy
11:54 AM 81.0 °F 81.3 °F 59.0 °F 47% 30.03 in 10.0 mi NNE 4.6 mph - N/A   Partly Cloudy
12:54 PM 82.0 °F 82.1 °F 59.0 °F 45% 30.01 in 10.0 mi Calm Calm - N/A   Scattered Clouds
1:54 PM 84.0 °F 83.8 °F 59.0 °F 43% 30.00 in 10.0 mi Calm Calm - N/A   Scattered Clouds
2:54 PM 84.0 °F 83.5 °F 57.9 °F 41% 29.98 in 10.0 mi SSW 5.8 mph - N/A   Scattered Clouds
3:54 PM 84.9 °F 84.2 °F 57.9 °F 40% 29.97 in 10.0 mi Variable 6.9 mph - N/A   Scattered Clouds
4:54 PM 84.9 °F 83.9 °F 57.0 °F 38% 29.96 in 10.0 mi South 5.8 mph - N/A   Mostly Cloudy
5:54 PM 82.9 °F 82.4 °F 57.0 °F 41% 29.95 in 10.0 mi SSE 8.1 mph - N/A   Scattered Clouds
6:54 PM 82.0 °F 82.1 °F 59.0 °F 45% 29.95 in 10.0 mi South 8.1 mph - N/A   Mostly Cloudy
7:54 PM 81.0 °F 81.3 °F 59.0 °F 47% 29.95 in 10.0 mi SE 5.8 mph - N/A   Mostly Cloudy
8:54 PM 78.1 °F - 60.1 °F 54% 29.96 in 10.0 mi SE 4.6 mph - N/A   Scattered Clouds
9:54 PM 75.9 °F - 60.1 °F 58% 29.96 in 10.0 mi SSE 4.6 mph - N/A   Scattered Clouds
10:54 PM 75.9 °F - 60.1 °F 58% 29.97 in 10.0 mi SE 5.8 mph - N/A   Scattered Clouds
11:54 PM 72.0 °F - 61.0 °F 68% 29.97 in 10.0 mi South 4.6 mph - N/A   Scattered Clouds